CDT,Max TemperatureF,Mean TemperatureF,Min TemperatureF,Max Dew PointF,MeanDew PointF,Min DewpointF,Max Humidity, Mean Humidity, Min Humidity, Max Sea Level PressureIn, Mean Sea Level PressureIn, Min Sea Level PressureIn, Max VisibilityMiles, Mean VisibilityMiles, Min VisibilityMiles, Max Wind SpeedMPH, Mean Wind SpeedMPH, Max Gust SpeedMPH,PrecipitationIn, CloudCover, Events, WindDirDegrees
2012-10-1,66,55,44,48,43,39,93,64,38,29.93,29.87,29.82,10,10,10,8,5,,0.00,0,,60
2012-10-2,74,60,47,52,45,42,87,59,33,29.91,29.85,29.82,10,10,7,16,8,23,0.00,1,,38
2012-10-3,67,62,57,58,53,46,92,74,58,30.03,29.96,29.89,10,10,5,10,5,,0.01,8,Rain,288
2012-10-4,73,60,46,57,50,42,90,77,52,30.16,30.07,30.02,10,10,3,21,10,26,0.18,3,Rain-Thunderstorm,235
2012-10-5,47,42,38,41,34,29,88,69,53,30.20,30.15,30.11,10,10,10,23,8,33,0.00,5,,280
2012-10-6,48,40,32,31,29,27,80,64,49,30.21,30.17,30.11,10,10,10,15,10,22,0.00,4,,297
2012-10-7,50,42,35,32,27,21,75,55,33,30.22,30.18,30.13,10,10,10,16,7,21,0.00,4,,274
2012-10-8,60,47,34,34,30,26,76,54,31,30.15,30.08,29.99,10,10,10,22,11,33,0.00,0,,204
2012-10-9,66,53,41,43,39,34,93,64,37,30.00,29.92,29.82,10,10,7,29,13,37,0.22,3,Rain,218
2012-10-10,54,44,35,41,32,28,94,67,39,30.18,30.11,29.96,10,10,10,20,10,29,0.00,1,,274
2012-10-11,66,51,36,41,35,30,83,57,33,30.27,30.13,30.06,10,10,10,21,11,26,0.00,1,,217
2012-10-12,57,46,36,38,31,28,77,53,33,30.43,30.34,30.24,10,10,10,16,10,21,0.00,1,,79
2012-10-13,67,56,46,63,52,30,95,82,50,30.23,29.96,29.77,10,8,2,20,11,25,0.30,6,Rain,176
2012-10-14,69,58,48,64,56,43,95,88,73,29.84,29.64,29.45,10,8,2,28,13,43,0.64,8,Rain-Thunderstorm,233
2012-10-15,61,50,41,43,41,38,93,70,47,29.98,29.92,29.85,10,10,10,16,9,20,0.00,0,,290
2012-10-16,72,58,44,54,47,39,83,66,47,29.95,29.72,29.53,10,10,10,26,11,34,0.00,1,Rain,166
2012-10-17,66,60,52,59,52,48,95,79,61,29.55,29.45,29.31,10,9,2,26,13,38,0.81,5,Rain-Thunderstorm,199
2012-10-18,52,48,43,48,40,36,88,77,54,29.49,29.43,29.38,10,10,5,23,15,32,0.09,6,Rain,229
2012-10-19,52,47,43,46,43,40,95,87,67,29.69,29.53,29.41,10,9,0,21,7,28,0.04,7,Fog-Rain,266
2012-10-20,56,48,40,44,41,39,100,83,56,29.94,29.83,29.69,10,6,0,12,7,16,0.00,5,Fog,263
2012-10-21,70,56,41,54,47,38,93,74,52,30.00,29.96,29.92,10,10,4,16,6,20,0.00,0,,144
2012-10-22,66,60,55,63,58,52,94,90,82,29.96,29.91,29.88,10,9,4,17,7,21,0.16,6,Rain-Thunderstorm,164
2012-10-23,72,66,60,64,62,59,100,87,69,29.92,29.89,29.85,10,8,3,17,8,20,0.00,6,Thunderstorm,167
2012-10-24,78,70,61,66,62,58,90,77,63,29.93,29.88,29.83,10,10,7,20,12,26,0.00,1,,182
2012-10-25,75,58,42,63,55,37,93,80,64,30.12,29.82,29.68,10,10,5,26,18,33,0.09,5,Rain-Thunderstorm,223
2012-10-26,49,41,34,37,31,29,84,69,46,30.35,30.29,30.13,10,10,10,18,13,31,0.06,2,,333
2012-10-27,46,38,30,31,28,26,86,70,47,30.36,30.30,30.25,10,10,10,15,10,20,0.00,0,,4
2012-10-28,50,42,33,33,30,27,81,66,48,30.30,30.28,30.25,10,10,10,18,10,24,0.00,4,,19
2012-10-29,52,40,29,33,27,22,89,64,32,30.32,30.25,30.11,10,10,10,18,10,22,0.00,0,,355
2012-10-30,49,42,34,30,26,23,75,58,36,30.10,29.92,29.84,10,10,10,26,15,34,0.00,0,,327
2012-10-31,50,40,29,32,26,21,83,65,36,29.90,29.88,29.85,10,10,10,23,12,26,0.00,0,,308